Flag for Australia Weather past 2 weeks in Tamworth, New South Wales, Australia

Now
79 °F

Sunny.


Feels Like: 79 °F
Forecast: 66 / 77 °F
Wind: 8 mph from Southwest

Location: Tamworth Airport

Current Time: Dec 26, 2014 at 7:42:49 PM

Latest Report: Dec 26, 2014 at 7:00 PM


Visibility: N/A

Pressure: 29.86 "Hg

Humidity: 42%

Dew point: 54 °F

Location of TamworthLocation

Historic Weather in Tamworth — Graph

°F

Tamworth temperature yesterday

Maximum temperature yesterday: 90 °F (at 1:00 PM)
Minimum temperature yesterday: 66 °F (at 4:00 AM)
Average temperature yesterday: 74 °F

Past Weeks' High & Low Weather Summary

 TemperatureHumidityPressure
High99 °F (Dec 17, 2:30 PM)88% (Dec 23, 10:00 AM)30.07 "Hg (Dec 23, 10:00 AM)
Low52 °F (Dec 14, 5:00 AM)12% (Dec 19, 5:00 PM)29.62 "Hg (Dec 16, 3:30 PM)
Average74 °F53%29.87 "Hg
* Reported Dec 11 6:00 PM — Dec 26 6:00 PM, Tamworth, Weather by CustomWeather, © 2014

Note: Actual official high and low records may vary slightly from our data, if they occured in-between our weather recording intervals... More about our weather records

Advertising

Tamworth weather history for previous 24 hours

 ConditionsComfort  
Time TempWeatherWind HumidityBarometerVisibility
6:00 PM
Dec 26
81 °FSunny.14 mph37%29.86 "HgN/A
5:30 PM82 °FSunny.12 mph32%29.86 "HgN/A
5:00 PM84 °FSunny.15 mph37%29.83 "HgN/A
4:30 PM82 °FScattered clouds.1 mph51%29.83 "HgN/A
4:00 PM82 °FPartly sunny.No wind58%29.86 "HgN/A
3:30 PM81 °FScattered clouds.6 mph58%29.86 "HgN/A
3:00 PM81 °FScattered clouds.3 mph62%29.86 "HgN/A
2:30 PM77 °FBroken clouds.7 mph65%29.89 "HgN/A
1:30 PM77 °FCloudy.3 mph69%29.89 "HgN/A
1:00 PM75 °FMore clouds than sun.No wind74%29.89 "HgN/A
12:30 PM72 °FMostly cloudy.1 mph83%29.89 "HgN/A
12:00 PM72 °FCloudy.13 mph83%29.89 "HgN/A
11:30 AM70 °FCloudy.10 mph88%29.89 "HgN/A
11:00 AM68 °FBroken clouds.10 mph88%29.89 "Hg2 mi
10:30 AM68 °FBroken clouds.13 mph88%29.89 "Hg3 mi
10:00 AM68 °FBroken clouds.13 mph88%29.89 "Hg2 mi
9:00 AM70 °FBroken clouds.16 mph83%29.86 "Hg3 mi
8:00 AM70 °FCloudy.9 mph88%29.86 "HgN/A
7:30 AM70 °FCloudy.13 mph88%29.83 "HgN/A
7:00 AM70 °FCloudy.10 mph88%29.83 "Hg4 mi
6:30 AM70 °FMore clouds than sun.13 mph83%29.80 "HgN/A
6:00 AM70 °FMostly cloudy.12 mph83%29.80 "HgN/A
5:00 AM72 °FOvercast.13 mph78%29.80 "HgN/A
4:30 AM72 °FMostly cloudy.13 mph83%29.77 "HgN/A
4:00 AM72 °FOvercast.15 mph78%29.77 "HgN/A
3:00 AM72 °FPartly cloudy.14 mph83%29.77 "HgN/A
2:00 AM72 °FPartly cloudy.9 mph83%29.80 "HgN/A
1:03 AM72 °FPassing clouds.6 mph88%29.80 "Hg4 mi
12:00 AM72 °FPartly cloudy.8 mph83%29.83 "HgN/A
11:30 PM
Dec 25
72 °FPassing clouds.8 mph88%29.83 "HgN/A
11:00 PM72 °FPartly cloudy.7 mph88%29.86 "HgN/A
10:30 PM72 °FPartly cloudy.7 mph88%29.86 "HgN/A
10:00 PM72 °FOvercast.9 mph88%29.86 "Hg2 mi
9:30 PM73 °FPartly cloudy.6 mph83%29.83 "HgN/A
9:00 PM73 °FPartly cloudy.3 mph83%29.83 "HgN/A
8:30 PM73 °FMostly cloudy.1 mph83%29.83 "HgN/A
8:00 PM72 °FOvercast.1 mph83%29.83 "HgN/A
7:30 PM72 °FOvercast.5 mph83%29.83 "HgN/A
7:00 PM72 °FScattered clouds.8 mph83%29.80 "HgN/A
Weather by CustomWeather, © 2014

See weather overviewHow to use our weather pages